Simultaneous Nadir Overpasses (SNOs) Predictions

Prediction of SNOs between NPP and TERRA Satellite Orbit:

Table of predicted SNOs for the next 14.0 days since TLE Epoch: 1/3/2015
Index Date (NPP) Time (NPP) Lat,Lon (NPP) SZA (NPP ) Date (TERRA) Time (TERRA) Lat,Lon (TERRA) SZA (TERRA ) Distance(km) Time Diff (sec)
1 01/05/2015 14:16:17 -69.17, 145.46 88.34 01/05/2015 14:16:45 -69.17, 145.53 88.34 2.74 28
2 01/05/2015 15:07:01 69.03, -47.04 91.53 01/05/2015 15:06:13 69.02, -47.03 91.51 2.04 48
3 01/08/2015 05:42:39 69.96, 92.77 92.16 01/08/2015 05:43:47 69.82, 94.59 91.99 71.40 68
4 01/08/2015 06:33:06 -69.10, -98.66 88.74 01/08/2015 06:33:28 -69.12, -98.72 88.72 3.22 22
5 01/08/2015 07:23:51 69.02, 68.75 91.18 01/08/2015 07:22:55 69.02, 68.80 91.18 1.74 56
6 01/10/2015 21:59:27 69.85,-151.28 91.67 01/10/2015 22:00:36 69.71,-149.76 91.50 60.45 69
7 01/10/2015 22:49:57 -69.14, 17.06 89.07 01/10/2015 22:50:15 -69.13, 17.10 89.09 2.03 18
8 01/10/2015 23:40:41 69.01,-175.45 90.80 01/10/2015 23:39:42 69.02,-175.39 90.81 2.96 59
9 01/13/2015 14:16:17 69.90, -35.57 91.29 01/13/2015 14:17:25 69.82, -33.82 91.19 67.72 68
10 01/13/2015 15:06:46 -69.13, 132.85 89.51 01/13/2015 15:07:06 -69.14, 132.89 89.51 1.92 20
11 01/13/2015 15:57:30 69.00, -59.67 90.36 01/13/2015 15:56:34 68.98, -59.66 90.34 2.81 56
12 01/16/2015 06:33:12 70.16, 79.80 91.09 01/16/2015 06:34:18 70.06, 82.27 90.94 94.05 66
13 01/16/2015 07:23:36 -69.13,-111.37
